ONEWEB-0325 (49194 NORAD) Tracking and Keplerian Element Data

This shows tracking and keplerian element data for the satellite.

Feedback or suggestion? Click here.




ElementValue
Catalog49194
NameONEWEB-0325
Epoch Orbit358
Epoch Day287.91667824
Epoch Year2021
RAAN317.9493
Inclination87.491
Eccentricity0.001819
Argument of Perigee189.1719
Mean Anonmoly183.1723
Mean Motion14.89891252
Decay Rate-0.01349037
L11 49194U 21083J 21287.91667824 -.01349037 00000-0 -15238+0 0 9991
L22 49194 87.4910 317.9493 0018190 189.1719 183.1723 14.89891252 3589

Live tracking and technical data element details for ONEWEB-0325 (NORAD 49194). ONEWEB-0325 can be tracked NOW for your location showing map with azimuth and elevation plus other details from your city location.

Track the satellite on the map from your city or location and see movement details for azimuth, elevation, latitude, longitude, range, height, and movement on the map or in text.







IsCatalogInMostPopularTable: catalog: 49194, numindb: 7
Update: records affected: 1



GetName: 49194 ONEWEB-0325

Hit Count: updated at: Tue, 19 Oct 2021 09:33:55 GMT